Edwards, CA

7:08 PM PST on January 18, 2017 (GMT -0800)
Edwards Air Force Base

Weather History for KEDW - August, 2013

Change the Weather History Date:

Sunday, August 4, 2013

  Actual Average Record
Temperature  
Mean Temperature 80 °F -  
Max Temperature 99 °F 98 °F 109 °F (1998)
Min Temperature 62 °F 64 °F 59 °F (2004)
Cooling Degree Days 15    
Growing Degree Days 30 (Base 50)    
Moisture  
Dew Point 28 °F    
Average Humidity 19    
Maximum Humidity 43    
Minimum Humidity 4    
Precipitation  
Precipitation 0.00 in - - ()
Sea Level Pressure  
Sea Level Pressure 29.89 in    
Wind  
Wind Speed 11 mph (SW)    
Max Wind Speed 25 mph    
Max Gust Speed 31 mph    
Visibility 10 miles    
Events      
Averages and records for this station are not official NWS values.
T = Trace of Precipitation, MM = Missing Value Source: NWS Daily Summary

Daily Weather History Graph

Daily Weather History Graph

Search for Another Location

Airport or City:

Trip Planner

Search our weather history database for the weather conditions in past years. The results will help you decide how hot, cold, wet, or windy it might be!

Date:

Astronomy

Aug. 04, 2013 Rise Set
Actual Time 6:03 AM PDT 7:51 PM PDT
Civil Twilight 5:36 AM PDT 8:18 PM PDT
Nautical Twilight 5:02 AM PDT 8:51 PM PDT
Astronomical Twilight 4:27 AM PDT 9:26 PM PDT
Moon 4:09 AM PDT (8/4) 6:17 PM PDT (8/4)
Length of Visible Light 14h 42m
Length of Day
13h 47m
Waning Crescent, 4% of the Moon is Illuminated
Aug 4
Waning Crescent
Aug 6
New
Aug 14
First Quarter
Aug 20
Full
Aug 28
Last Quarter

Hourly Weather History & Observations

Time (PDT) Temp. Dew Point Humidity Pressure Visibility Wind Dir Wind Speed Gust Speed Precip Events Conditions
12:58 AM 70.2 °F 36.9 °F 30% 29.88 in 10.0 mi SW 11.5 mph - N/A   Partly Cloudy
1:58 AM 68.0 °F 38.3 °F 34% 29.88 in 10.0 mi SW 11.5 mph - N/A   Clear
2:58 AM 66.9 °F 38.1 °F 35% 29.88 in 10.0 mi SW 9.2 mph - N/A   Clear
3:58 AM 64.0 °F 37.8 °F 38% 29.88 in 10.0 mi SSW 9.2 mph - N/A   Clear
4:58 AM 65.3 °F 35.8 °F 34% 29.88 in 10.0 mi SSW 11.5 mph - N/A   Clear
5:58 AM 62.4 °F 39.4 °F 43% 29.90 in 10.0 mi Variable 2.3 mph - N/A   Clear
6:58 AM 64.9 °F 36.7 °F 35% 29.92 in 10.0 mi SSW 4.6 mph - N/A   Clear
7:58 AM 70.9 °F 34.7 °F 26% 29.93 in 10.0 mi SSW 6.9 mph - N/A   Clear
8:58 AM 76.6 °F 36.7 °F 24% 29.93 in 90.0 mi South 5.8 mph - N/A   Partly Cloudy
9:58 AM 82.0 °F 36.3 °F 19% 29.92 in 90.0 mi South 6.9 mph - N/A   Partly Cloudy
10:58 AM 87.1 °F 32.9 °F 14% 29.92 in 90.0 mi SW 8.1 mph - N/A   Partly Cloudy
11:58 AM 91.0 °F 26.4 °F 10% 29.90 in 90.0 mi SW 9.2 mph - N/A   Partly Cloudy
12:58 PM 94.3 °F 14.0 °F 5% 29.88 in 90.0 mi West 6.9 mph - N/A   Partly Cloudy
1:58 PM 96.6 °F 10.6 °F 4% 29.88 in 90.0 mi WSW 5.8 mph - N/A   Partly Cloudy
2:58 PM 97.7 °F 5.0 °F 4% 29.86 in 90.0 mi SW 13.8 mph 21.9 mph N/A   Partly Cloudy
3:20 PM 98.6 °F 5.0 °F 4% 29.92 in 90.0 mi South 13.8 mph 19.6 mph N/A   Partly Cloudy
3:58 PM 98.8 °F 12.0 °F 4% 29.85 in 90.0 mi SW 11.5 mph 18.4 mph N/A   Partly Cloudy
4:58 PM 97.5 °F 15.3 °F 5% 29.83 in 10.0 mi SW 16.1 mph 24.2 mph N/A   Clear
5:58 PM 94.5 °F 26.8 °F 9% 29.82 in 10.0 mi WSW 25.3 mph 29.9 mph N/A   Clear
6:58 PM 89.6 °F 36.7 °F 15% 29.83 in 10.0 mi WSW 23.0 mph 29.9 mph N/A   Clear
7:58 PM 83.5 °F 40.1 °F 21% 29.86 in 10.0 mi WSW 23.0 mph 31.1 mph N/A   Clear
8:58 PM 79.3 °F 36.7 °F 22% 29.88 in 10.0 mi SW 19.6 mph 24.2 mph N/A   Clear
9:58 PM 76.8 °F 30.7 °F 19% 29.90 in 10.0 mi WSW 17.3 mph - N/A   Clear
10:58 PM 74.5 °F 22.6 °F 14% 29.90 in 10.0 mi SW 15.0 mph - N/A   Clear
11:58 PM 72.1 °F 20.8 °F 14% 29.90 in 10.0 mi SW 10.4 mph - N/A   Clear